Tracking 26321 objects as of 27-Nov-2022
HD Live streaming from Space Station
objects crossing your sky now

USA 229 DEB

Track USA 229 DEB now!
10-day predictions
USA 229 DEB is classified as:


NORAD ID: 37391
Int'l Code: 2011-014B
Perigee: 931.5 km
Apogee: 1,295.0 km
Inclination: 63.4 °
Period: 107.4 minutes
Semi major axis: 7484 km
RCS: Unknown
Launch date: April 15, 2011
Source: United States (US)
Launch site: AIR FORCE WESTERN TEST RANGE (AFWTR)

Note: This is SATELLITE DEBRIS
aabbcc
Your satellite tracking list
Your tracking list is empty




NASA's NSSDC Master Catalog

Two Line Element Set (TLE):
1 37391U 11014B   22325.16440379 0.00000000  00000-0  00000-0 0    01
2 37391  63.4370   7.5863 0242840 357.3910   2.6090 13.40841322    00
Source of the keplerian elements: McCants